Time,TemperatureF,DewpointF,PressureIn,WindDirection,WindDirectionDegrees,WindSpeedMPH,WindSpeedGustMPH,Humidity,HourlyPrecipIn,Conditions,Clouds,dailyrainin,SoftwareType,DateUTC
2013-12-11 00:13:00,22.5,9.2,30.02,NW,315,3.7,-999.0,56,-99.99,,,0.00,Acu-Link.com,2013-12-11 05:13:00,
2013-12-11 00:28:00,22.1,9.6,30.03,North,0,2.2,-999.0,58,-99.99,,,0.00,Acu-Link.com,2013-12-11 05:28:00,
2013-12-11 00:47:00,22.1,9.2,30.04,West,270,2.2,-999.0,57,-99.99,,,0.00,Acu-Link.com,2013-12-11 05:47:00,
2013-12-11 01:03:00,21.6,9.5,30.04,NW,315,6.3,-999.0,59,-99.99,,,0.00,Acu-Link.com,2013-12-11 06:03:00,
2013-12-11 01:18:00,21.6,9.5,30.04,WSW,247,1.7,-999.0,59,-99.99,,,0.00,Acu-Link.com,2013-12-11 06:18:00,
2013-12-11 01:34:00,21.0,9.3,30.06,WSW,247,1.7,-999.0,60,-99.99,,,0.00,Acu-Link.com,2013-12-11 06:34:00,
2013-12-11 01:49:00,21.0,9.3,30.07,WSW,247,2.7,-999.0,60,-99.99,,,0.00,Acu-Link.com,2013-12-11 06:49:00,
2013-12-11 02:05:00,21.0,9.3,30.08,SSW,202,2.7,-999.0,60,-99.99,,,0.00,Acu-Link.com,2013-12-11 07:05:00,
2013-12-11 02:20:00,21.0,9.3,30.07,SW,225,1.7,-999.0,60,-99.99,,,0.00,Acu-Link.com,2013-12-11 07:20:00,
2013-12-11 02:35:00,21.0,9.0,30.06,West,270,2.2,-999.0,59,-99.99,,,0.00,Acu-Link.com,2013-12-11 07:35:00,
2013-12-11 02:50:00,21.2,9.1,30.07,SW,225,4.2,-999.0,59,-99.99,,,0.00,Acu-Link.com,2013-12-11 07:50:00,
2013-12-11 03:05:00,21.2,9.1,30.08,WSW,247,2.7,-999.0,59,-99.99,,,0.00,Acu-Link.com,2013-12-11 08:05:00,
2013-12-11 03:21:00,21.2,9.5,30.08,SE,135,2.2,-999.0,60,-99.99,,,0.00,Acu-Link.com,2013-12-11 08:21:00,
2013-12-11 03:36:00,21.2,9.5,30.08,SW,225,2.2,-999.0,60,-99.99,,,0.00,Acu-Link.com,2013-12-11 08:36:00,
2013-12-11 03:52:00,21.2,9.5,30.09,West,270,5.3,-999.0,60,-99.99,,,0.00,Acu-Link.com,2013-12-11 08:52:00,
2013-12-11 04:07:00,21.2,9.5,30.09,West,270,4.7,-999.0,60,-99.99,,,0.00,Acu-Link.com,2013-12-11 09:07:00,
2013-12-11 04:22:00,21.0,9.7,30.10,WSW,247,0.0,-999.0,61,-99.99,,,0.00,Acu-Link.com,2013-12-11 09:22:00,
2013-12-11 04:38:00,21.0,9.3,30.11,SW,225,2.7,-999.0,60,-99.99,,,0.00,Acu-Link.com,2013-12-11 09:38:00,
2013-12-11 04:53:00,20.8,9.9,30.10,West,270,3.2,-999.0,62,-99.99,,,0.00,Acu-Link.com,2013-12-11 09:53:00,
2013-12-11 05:08:00,20.5,10.3,30.12,West,270,3.2,-999.0,64,-99.99,,,0.00,Acu-Link.com,2013-12-11 10:08:00,
2013-12-11 05:23:00,20.5,10.3,30.12,West,270,2.7,-999.0,64,-99.99,,,0.00,Acu-Link.com,2013-12-11 10:23:00,
2013-12-11 05:39:00,20.3,10.1,30.13,West,270,1.7,-999.0,64,-99.99,,,0.00,Acu-Link.com,2013-12-11 10:39:00,
2013-12-11 05:54:00,19.9,9.7,30.14,West,270,2.7,-999.0,64,-99.99,,,0.00,Acu-Link.com,2013-12-11 10:54:00,
2013-12-11 06:09:00,19.9,10.1,30.14,WSW,247,2.2,-999.0,65,-99.99,,,0.00,Acu-Link.com,2013-12-11 11:09:00,
2013-12-11 06:24:00,19.4,9.6,30.14,WNW,292,1.7,-999.0,65,-99.99,,,0.00,Acu-Link.com,2013-12-11 11:24:00,
2013-12-11 06:40:00,19.0,9.5,30.14,SSW,202,0.0,-999.0,66,-99.99,,,0.00,Acu-Link.com,2013-12-11 11:40:00,
2013-12-11 06:55:00,19.0,9.5,30.16,SW,225,2.2,-999.0,66,-99.99,,,0.00,Acu-Link.com,2013-12-11 11:55:00,
2013-12-11 07:14:00,19.0,9.5,30.17,West,270,4.7,-999.0,66,-99.99,,,0.00,Acu-Link.com,2013-12-11 12:14:00,
2013-12-11 07:36:00,19.0,9.9,30.18,NW,315,4.2,-999.0,67,-99.99,,,0.00,Acu-Link.com,2013-12-11 12:36:00,
2013-12-11 07:51:00,19.2,10.1,30.18,WSW,247,3.2,-999.0,67,-99.99,,,0.00,Acu-Link.com,2013-12-11 12:51:00,
2013-12-11 08:06:00,20.1,10.3,30.17,SW,225,2.2,-999.0,65,-99.99,,,0.00,Acu-Link.com,2013-12-11 13:06:00,
2013-12-11 08:22:00,20.7,10.5,30.17,West,270,3.2,-999.0,64,-99.99,,,0.00,Acu-Link.com,2013-12-11 13:22:00,
2013-12-11 08:37:00,22.1,11.1,30.18,South,180,0.0,-999.0,62,-99.99,,,0.00,Acu-Link.com,2013-12-11 13:37:00,
2013-12-11 08:53:00,24.4,11.8,30.19,SSW,202,3.7,-999.0,58,-99.99,,,0.00,Acu-Link.com,2013-12-11 13:53:00,
2013-12-11 09:08:00,23.5,11.7,30.19,WSW,247,2.2,-999.0,60,-99.99,,,0.00,Acu-Link.com,2013-12-11 14:08:00,
2013-12-11 09:23:00,23.4,10.8,30.19,WSW,247,3.2,-999.0,58,-99.99,,,0.00,Acu-Link.com,2013-12-11 14:23:00,
2013-12-11 09:38:00,24.4,11.0,30.19,SW,225,2.7,-999.0,56,-99.99,,,0.00,Acu-Link.com,2013-12-11 14:38:00,
2013-12-11 09:53:00,25.5,10.8,30.19,SSW,202,5.8,-999.0,53,-99.99,,,0.00,Acu-Link.com,2013-12-11 14:53:00,
2013-12-11 10:09:00,26.2,11.0,30.19,SW,225,2.2,-999.0,52,-99.99,,,0.00,Acu-Link.com,2013-12-11 15:09:00,
2013-12-11 10:24:00,27.1,10.5,30.19,WSW,247,2.2,-999.0,49,-99.99,,,0.00,Acu-Link.com,2013-12-11 15:24:00,
2013-12-11 10:39:00,27.3,9.8,30.18,West,270,4.7,-999.0,47,-99.99,,,0.00,Acu-Link.com,2013-12-11 15:39:00,
2013-12-11 10:55:00,27.7,10.1,30.18,SW,225,3.7,-999.0,47,-99.99,,,0.00,Acu-Link.com,2013-12-11 15:55:00,
2013-12-11 11:10:00,29.8,10.6,30.16,WSW,247,2.7,-999.0,44,-99.99,,,0.00,Acu-Link.com,2013-12-11 16:10:00,
2013-12-11 11:25:00,29.7,10.5,30.16,SW,225,1.7,-999.0,44,-99.99,,,0.00,Acu-Link.com,2013-12-11 16:25:00,
2013-12-11 11:40:00,29.7,9.5,30.14,SW,225,3.2,-999.0,42,-99.99,,,0.00,Acu-Link.com,2013-12-11 16:40:00,
2013-12-11 11:56:00,29.7,7.8,30.14,West,270,5.8,-999.0,39,-99.99,,,0.00,Acu-Link.com,2013-12-11 16:56:00,
2013-12-11 12:11:00,31.1,9.6,30.12,SW,225,4.2,-999.0,40,-99.99,,,0.00,Acu-Link.com,2013-12-11 17:11:00,
2013-12-11 12:26:00,30.4,8.4,30.12,SW,225,4.2,-999.0,39,-99.99,,,0.00,Acu-Link.com,2013-12-11 17:26:00,
2013-12-11 12:41:00,30.6,9.2,30.10,SE,135,4.2,-999.0,40,-99.99,,,0.00,Acu-Link.com,2013-12-11 17:41:00,
2013-12-11 12:56:00,30.6,8.6,30.10,WNW,292,2.7,-999.0,39,-99.99,,,0.00,Acu-Link.com,2013-12-11 17:56:00,
2013-12-11 13:12:00,30.6,9.2,30.11,West,270,2.7,-999.0,40,-99.99,,,0.00,Acu-Link.com,2013-12-11 18:12:00,
2013-12-11 13:27:00,31.6,8.4,30.11,SW,225,4.7,-999.0,37,-99.99,,,0.00,Acu-Link.com,2013-12-11 18:27:00,
2013-12-11 13:42:00,31.1,7.9,30.11,SW,225,4.2,-999.0,37,-99.99,,,0.00,Acu-Link.com,2013-12-11 18:42:00,
2013-12-11 13:57:00,30.4,7.3,30.10,SSW,202,2.2,-999.0,37,-99.99,,,0.00,Acu-Link.com,2013-12-11 18:57:00,
2013-12-11 14:13:00,30.4,8.4,30.10,WSW,247,3.2,-999.0,39,-99.99,,,0.00,Acu-Link.com,2013-12-11 19:13:00,
2013-12-11 14:28:00,30.2,10.4,30.09,East,90,1.7,-999.0,43,-99.99,,,0.00,Acu-Link.com,2013-12-11 19:28:00,
2013-12-11 14:43:00,29.5,9.8,30.10,SSW,202,4.2,-999.0,43,-99.99,,,0.00,Acu-Link.com,2013-12-11 19:43:00,
2013-12-11 14:58:00,29.5,11.3,30.10,West,270,2.2,-999.0,46,-99.99,,,0.00,Acu-Link.com,2013-12-11 19:58:00,
2013-12-11 15:14:00,28.8,11.1,30.10,West,270,2.7,-999.0,47,-99.99,,,0.00,Acu-Link.com,2013-12-11 20:14:00,
2013-12-11 15:29:00,29.3,12.5,30.10,WNW,292,5.3,-999.0,49,-99.99,,,0.00,Acu-Link.com,2013-12-11 20:29:00,
2013-12-11 15:44:00,28.4,13.0,30.10,WSW,247,1.7,-999.0,52,-99.99,,,0.00,Acu-Link.com,2013-12-11 20:44:00,
2013-12-11 15:59:00,27.5,13.1,30.10,SW,225,2.7,-999.0,54,-99.99,,,0.00,Acu-Link.com,2013-12-11 20:59:00,
2013-12-11 16:15:00,27.1,13.5,30.10,West,270,2.2,-999.0,56,-99.99,,,0.00,Acu-Link.com,2013-12-11 21:15:00,
2013-12-11 16:30:00,26.2,13.9,30.11,West,270,3.2,-999.0,59,-99.99,,,0.00,Acu-Link.com,2013-12-11 21:30:00,
2013-12-11 16:45:00,25.9,14.3,30.11,West,270,2.2,-999.0,61,-99.99,,,0.00,Acu-Link.com,2013-12-11 21:45:00,
2013-12-11 17:00:00,25.5,14.7,30.11,SW,225,1.7,-999.0,63,-99.99,,,0.00,Acu-Link.com,2013-12-11 22:00:00,
2013-12-11 17:15:00,25.0,14.6,30.11,SSW,202,0.0,-999.0,64,-99.99,,,0.00,Acu-Link.com,2013-12-11 22:15:00,
2013-12-11 17:31:00,24.8,14.7,30.13,SSW,202,0.0,-999.0,65,-99.99,,,0.00,Acu-Link.com,2013-12-11 22:31:00,
2013-12-11 17:46:00,24.3,14.3,30.12,West,270,1.7,-999.0,65,-99.99,,,0.00,Acu-Link.com,2013-12-11 22:46:00,
2013-12-11 18:01:00,24.3,14.9,30.13,SW,225,1.7,-999.0,67,-99.99,,,0.00,Acu-Link.com,2013-12-11 23:01:00,
2013-12-11 18:16:00,23.9,15.2,30.12,SW,225,2.2,-999.0,69,-99.99,,,0.00,Acu-Link.com,2013-12-11 23:16:00,
2013-12-11 18:32:00,23.9,15.6,30.13,West,270,0.0,-999.0,70,-99.99,,,0.00,Acu-Link.com,2013-12-11 23:32:00,
2013-12-11 18:54:00,23.5,15.5,30.14,NE,45,1.1,-999.0,71,-99.99,,,0.00,Acu-Link.com,2013-12-11 23:54:00,
2013-12-11 19:41:00,22.1,14.8,30.13,ESE,112,0.0,-999.0,73,-99.99,,,0.00,Acu-Link.com,2013-12-12 00:41:00,
2013-12-11 19:56:00,21.2,14.2,30.13,NW,315,0.0,-999.0,74,-99.99,,,0.00,Acu-Link.com,2013-12-12 00:56:00,
2013-12-11 20:11:00,19.9,13.3,30.13,West,270,0.0,-999.0,75,-99.99,,,0.00,Acu-Link.com,2013-12-12 01:11:00,
2013-12-11 20:42:00,19.4,12.8,30.13,West,270,0.0,-999.0,75,-99.99,,,0.00,Acu-Link.com,2013-12-12 01:42:00,
2013-12-11 22:49:00,20.8,14.5,30.13,SE,135,1.7,-999.0,76,-99.99,,,0.00,Acu-Link.com,2013-12-12 03:49:00,
2013-12-11 23:11:00,19.9,13.9,30.13,West,270,1.7,-999.0,77,-99.99,,,0.00,Acu-Link.com,2013-12-12 04:11:00,